Content
SEND FEEDBACK

Daily
Averages
Monthly
Summary
United States of America

GLENCOE, ILLINOIS


Home > North America > United States > Illinois
Elevation: 630 feet     Latitude: 42 08N     Longitude: 087 47W

WEATHER
 
SELECT A DAY
Number of Records: 197,818;   Date Range: 7/8/95 - 10/20/14
 
SHARE

PRINT THIS DATA

[ ← Previous Day ]
WEATHER ALMANAC - JULY 22, 2014
[ Next Day → ]
[ °C ]   °F
Weather ElementAverageHighLow
Temperature82 °F90 °F (1:52 pm)71.1 °F (4:52 am)
Dewpoint69.4 °F75.9 °F (10:52 pm)64 °F (4:52 am)
Humidity66 %78 % (4:52 am)52 % (1:52 pm)
Barometer29.98 in30.06 in (5:52 am)29.92 in (9:52 pm)
Wind Speed11.1 mph19.6 mph (11:52 pm)
Wind Gust32.2 mph (11:39 pm)
Weather ElementAverage
Visibility9.9 mi
Wind DirectionSSW (210.4 °)

Weather ElementTotal
Precipitation0.05 in
Cooling Degree Days15.6 (Base 65)
Growing Degree Days30.6 (Base 50)
Averaged from 24 records on July 22, 2014
WEATHER CONDITIONS BREAKOUT
WIND DIRECTION BREAKOUT
WEATHER BY HOUR - JULY 22, 2014
[ °C ]   °F
Local TimeTemperatureDewpointHumidityBarometerVisibilityWind DirectionWind SpeedGust SpeedPrecipitationEventsConditions
1:52 AM73.9 °F64.9 °F73 %30.05 in10.0 miSouth (190°)5.8 mphClear
2:52 AM73.0 °F64.9 °F76 %30.04 in10.0 miSouth (190°)6.9 mphClear
3:52 AM73.0 °F64.9 °F76 %30.04 in10.0 miSouth (190°)6.9 mphClear
4:52 AM71.1 °F64.0 °F78 %30.04 in10.0 miSouth (180°)5.8 mphClear
5:52 AM72.0 °F64.0 °F76 %30.06 in10.0 miSSW (200°)6.9 mphClear
6:52 AM73.9 °F64.0 °F71 %30.04 in10.0 miSouth (190°)10.4 mphClear
7:52 AM75.9 °F64.9 °F69 %30.02 in10.0 miSSW (200°)11.5 mphClear
9:52 AM82.9 °F66.0 °F56 %29.99 in10.0 miSW (230°)11.5 mph20.7 mphClear
10:52 AM84.0 °F66.9 °F56 %30.00 in10.0 miSW (220°)10.4 mphClear
11:52 AM84.0 °F68.0 °F58 %29.99 in10.0 miSSW (200°)12.7 mph17.3 mphPartly Cloudy
12:52 PM88.0 °F70.0 °F55 %29.96 in10.0 miSSW (200°)15.0 mphScattered Clouds
1:52 PM90.0 °F70.0 °F52 %29.94 in10.0 miSSW (210°)16.1 mph23.0 mphClear
3:52 PM89.1 °F72.0 °F57 %29.93 in10.0 miSSW (210°)16.1 mph23.0 mphMostly Cloudy
4:52 PM90.0 °F73.0 °F57 %29.93 in10.0 miSW (230°)8.1 mph16.1 mphOvercast
5:52 PM90.0 °F73.9 °F59 %29.93 in10.0 miSW (220°)10.4 mphMostly Cloudy
6:52 PM89.1 °F73.9 °F61 %29.94 in10.0 miSW (230°)9.2 mphMostly Cloudy
7:52 PM88.0 °F73.9 °F63 %29.94 in10.0 miSW (230°)6.9 mphMostly Cloudy
8:52 PM87.1 °F75.0 °F67 %29.94 in10.0 miWSW (240°)8.1 mphPartly Cloudy
9:52 PM84.9 °F75.0 °F72 %29.92 in10.0 miSW (230°)9.2 mphClear
10:52 PM84.0 °F75.9 °F76 %29.94 in9.0 miNW (320°)12.7 mph25.3 mph0.01 inRain-ThunderstormLight Thunderstorms and Rain
11:00 PM82.9 °F75.0 °F77 %29.96 in8.0 miNNW (330°)10.4 mph0.01 inRain-ThunderstormLight Thunderstorms and Rain
11:14 PM82.9 °F71.1 °F67 %29.97 in10.0 miNorth (350°)17.3 mph25.3 mph0.01 inThunderstormOvercast
11:39 PM80.1 °F68.0 °F67 %30.00 in10.0 miNNE (30°)17.3 mph32.2 mph0.01 inOvercast
11:52 PM78.1 °F66.0 °F66 %30.01 in10.0 miNNE (30°)19.6 mph32.2 mph0.01 inOvercast
Hourly data recorded from KPWK, located miles away from Glencoe, Illinois







STORIES FROM OUR PARTNERS